User: anonymous   Login
Location: Unspecified
(0.0000°N, 0.0000°E)
Time: 14:16:42
(UTC+00:00)
Language:

USA 200 - Orbit

View from above orbital plane
View from above orbital plane
View from above satellite
View from above satellite

Ground track
Ground track

The orbit data is extracted from the following two-line orbital elements,

1 32706U 08010A   17074.61387431 0.00000000  00000-0  00000-0 0    02
2 32706  63.5867 358.6297 7149811 270.9681  15.3907  2.00612000    05
Epoch (UTC): 15 March 2017 14:43:58
Eccentricity: 0.7149811
inclination: 63.5867°
perigee height: 1191 km
apogee height: 39164 km
right ascension of ascending node: 358.6297°
argument of perigee: 270.9681°
revolutions per day: 2.00612000
mean anomaly at epoch: 15.3907°
orbit number at epoch: 0

The dashed part of the orbit path shows where the satellite is in the earth's shadow,  

DLR